Winner, SD

4:38 AM CDT on June 24, 2017 (GMT -0500)
Winner

Weather History for KICR - November, 2013

Change the Weather History Date:

Saturday, November 9, 2013

  Actual Average Record
Temperature  
Mean Temperature 42 °F 39 °F  
Max Temperature 53 °F 50 °F 79 °F (2016)
Min Temperature 31 °F 29 °F 19 °F (2008)
Degree Days  
Heating Degree Days 23 26  
Month to date heating degree days 210 211  
Since 1 July heating degree days 807 809  
Cooling Degree Days 0 0  
Month to date cooling degree days 0 0  
Year to date cooling degree days 1014 916  
Moisture  
Dew Point 28 °F    
Average Humidity 55    
Maximum Humidity 72    
Minimum Humidity 38    
Precipitation  
Precipitation 0.00 in 0.03 in 0.00 in (2017)
Month to date precipitation 0.07 0.24  
Year to date precipitation 20.80 20.87  
Sea Level Pressure  
Sea Level Pressure 30.19 in    
Wind  
Wind Speed 13 mph (WNW)    
Max Wind Speed 25 mph    
Max Gust Speed 31 mph    
Visibility 10 miles    
Events      
T = Trace of Precipitation, MM = Missing Value Source: NWS Daily Summary

Daily Weather History Graph

Daily Weather History Graph

Search for Another Location

Airport or City:

Trip Planner

Search our weather history database for the weather conditions in past years. The results will help you decide how hot, cold, wet, or windy it might be!

Date:

Astronomy

Nov. 09, 2013 Rise Set
Actual Time 7:25 AM CST 5:20 PM CST
Civil Twilight 6:55 AM CST 5:50 PM CST
Nautical Twilight 6:20 AM CST 6:25 PM CST
Astronomical Twilight 5:47 AM CST 6:58 PM CST
Moon 1:01 PM CST (11/9) 11:55 PM CST (11/9)
Length of Visible Light 10h 55m
Length of Day
9h 55m
Waxing Crescent, 44% of the Moon is Illuminated
Nov 9
Waxing Crescent
Nov 9
First Quarter
Nov 17
Full
Nov 25
Last Quarter
Dec 2
New

Hourly Weather History & Observations

Time (CST) Temp. Windchill Dew Point Humidity Pressure Visibility Wind Dir Wind Speed Gust Speed Precip Events Conditions
12:53 AM 42.1 °F 35.2 °F 28.0 °F 58% 29.94 in 10.0 mi West 12.7 mph - N/A   Clear
1:53 AM 43.0 °F 35.4 °F 28.0 °F 56% 29.96 in 10.0 mi West 16.1 mph - N/A   Clear
2:53 AM 43.0 °F 34.8 °F 28.9 °F 58% 29.98 in 10.0 mi West 18.4 mph - N/A   Clear
3:53 AM 41.0 °F 33.1 °F 28.9 °F 62% 30.00 in 10.0 mi West 15.0 mph - N/A   Clear
4:53 AM 41.0 °F 33.5 °F 30.0 °F 65% 30.03 in 10.0 mi West 13.8 mph - N/A   Clear
5:53 AM 42.1 °F 33.9 °F 28.9 °F 60% 30.07 in 10.0 mi WNW 17.3 mph - N/A   Scattered Clouds
6:53 AM 39.9 °F 32.1 °F 28.9 °F 65% 30.09 in 10.0 mi NW 13.8 mph - N/A   Clear
7:53 AM 39.0 °F 32.8 °F 30.0 °F 70% 30.12 in 10.0 mi WNW 9.2 mph - N/A   Overcast
8:53 AM 46.0 °F 40.2 °F 32.0 °F 58% 30.14 in 10.0 mi WNW 12.7 mph - N/A   Overcast
9:53 AM 46.9 °F - 32.0 °F 56% 30.17 in 10.0 mi NW 19.6 mph 25.3 mph N/A   Overcast
10:53 AM 48.0 °F - 34.0 °F 58% 30.19 in 10.0 mi NW 17.3 mph 25.3 mph N/A   Overcast
11:53 AM 50.0 °F - 34.0 °F 54% 30.20 in 10.0 mi NW 15.0 mph 23.0 mph N/A   Clear
12:53 PM 52.0 °F - 33.1 °F 49% 30.20 in 10.0 mi NW 19.6 mph 26.5 mph N/A   Clear
1:53 PM 53.1 °F - 28.0 °F 38% 30.20 in 10.0 mi NW 23.0 mph 29.9 mph N/A   Clear
2:53 PM 52.0 °F - 26.1 °F 37% 30.22 in 10.0 mi NW 19.6 mph 26.5 mph N/A   Clear
3:53 PM 51.1 °F - 26.1 °F 38% 30.25 in 10.0 mi NW 18.4 mph - N/A   Clear
4:53 PM 48.0 °F - 25.0 °F 41% 30.27 in 10.0 mi NW 11.5 mph - N/A   Clear
5:53 PM 39.9 °F 34.5 °F 26.1 °F 58% 30.30 in 10.0 mi North 8.1 mph - N/A   Clear
6:53 PM 37.9 °F 32.7 °F 25.0 °F 60% 30.34 in 10.0 mi North 6.9 mph - N/A   Clear
7:53 PM 37.9 °F 35.5 °F 25.0 °F 60% 30.36 in 10.0 mi NNW 3.5 mph - N/A   Clear
8:53 PM 37.0 °F 34.5 °F 25.0 °F 62% 30.36 in 10.0 mi WNW 3.5 mph - N/A   Clear
9:53 PM 32.0 °F 26.4 °F 25.0 °F 75% 30.39 in 10.0 mi WSW 5.8 mph - N/A   Partly Cloudy
10:53 PM 34.0 °F 31.0 °F 25.0 °F 70% 30.39 in 10.0 mi West 3.5 mph - N/A   Overcast
11:53 PM 33.1 °F - 25.0 °F 72% 30.38 in 10.0 mi Calm Calm - N/A   Partly Cloudy